CZ-3B DEB, 39335

Orbit data source: Space-Track

CZ-3B DEB, 39335 is space debris in HEO originally from a launch on Sat, 04 Sep 2010 UTC launched from the Xichang Space Center, China (XSC). Debris objects in space refer to the collection of defunct objects orbiting the Earth. Examples of debris include non-operational satellites, rocket bodies, and fragments generated from explosions, collisions, or faulty payload assembly.

Loading next visibility...
Identifier
39335, 2010-042G
Orbit
HEO
Country
Flag of CNCN / PRC
Related business
Manufacturer
CALT
Mission
Spacecraft
Bus & Motor
Unknown
Mass
Unknown
Launch date (UTC)
2010-09-04 (16 years ago)
Launch vehicle
Unknown
Launch site
Xichang Space Center, China (XSC)
Object type
Payload
Rocket body
Debris
Shape & HBR
Unknown shape, 0.2 m
Radar Cross Section
Medium (>0.1 m² and <1 m²)

Expand to show TLE details & history
Last TLE update: 2 days ago

TLE from 2 days ago
0 CZ-3B DEB
1 39335U 10042G   26234.06336527 -.00000421  00000-0 -32243-2 0  9994
2 39335  28.2677  16.4845 7363586 355.6341 201.2444  1.97568145 85354
Epoch: 2026-08-22T01:31Z
TLE epoch observation values (Epoch: 2026-08-22T01:31:14.759Z)
Latitude
-0.19664°
Longitude
-156.34128°
Altitude
39,739.269 km
Speed
1.559 km/s
True Right ascension
13h 07m 23s
True Declination
0° 11' 47"
Sunlit
Object was in daylight at epoch
Visualization orbit readout
Latitude
Unknown
Longitude
Unknown
Altitude
Unknown
Speed
Unknown
Apparent Right ascension
Unknown
Apparent Declination
Unknown
Sunlit
N/A
Visualization observer readout
Local Sidereal Time
04:05:00
Azimuth
Unknown
Elevation
Unknown
Doppler factor
Unknown
Orbital elements
Apogee altitude
40,211.27 km
Perigee altitude
695.803 km
Semi-major axis
26,831.674 km
Eccentricity
0.73636
Inclination
28.2677°
RAAN
16.4845°
Arg. of periapsis
355.6341°
True anomaly
184.79857°
Mean anomaly
201.2444°
Eccentric anomaly
192.27476°
Mean motion
0.49382 °/min
Orbital period
729.01 mins
BSTAR
-0.0032243
Loading maneuver chart data...
Computing Atmospheric mass density...
Loading historical data...
Loading historical data...
Loading historical data...
Loading historical data...
Loading historical data...
Loading historical data...
Loading historical data...

Documentation

Showing up to 5 results
|